#timestamp,LO_Frequency,Hit,StdDev 
1512108015.4,286047004.3,Y
1512108035.2,286047002.5,P
1512108055.1,286047000.5,N
1512108056.0,286047000.5,N
1512108075.8,286047000.3,N
1512108095.6,286047000.8,N
1512108115.5,286046998.6,N
1512108135.3,286046998.1,N
1512108155.1,286046998.5,N
1512108175.9,286047000.3,N
1512108195.7,286047000.7,N
1512108215.6,286046998.6,N
1512108235.4,286047001.0,N
1512108255.2,286047001.0,N
1512108275.1,286046998.5,N
1512108276.0,286046998.5,N
1512108295.8,286047001.2,N
1512108315.6,286047000.2,N
1512108365.5,286047001.3,E
1512108375.4,286047002.2,N
1512108395.3,286047002.7,P
1512108415.1,286047002.8,P
1512108435.9,286047002.7,Y
1512108455.7,286046998.4,P
1512108475.5,286046998.8,N
1512108495.4,286046999.4,N
1512108515.2,286046996.8,N
1512108535.0,286046996.7,N
1512108535.9,286046996.7,N
1512108555.8,286046998.7,N
1512108575.6,286046998.9,N
1512108595.5,286046999.1,N
1512108615.3,286046999.3,N
1512108635.1,286046999.6,N
1512108655.9,286046999.1,N
1512108675.7,286046999.1,N
1512108695.6,286046996.9,N
1512108715.4,286046997.2,N
1512108735.2,286046997.0,N
1512108755.1,286046997.7,N
1512108756.0,286046997.7,N
1512108775.8,286046997.6,N
1512108795.6,286046997.0,N
1512108815.5,286046997.6,N
1512108835.3,286046996.5,N
1512108855.2,286046999.0,N
1512108875.9,286046999.6,N
1512108895.7,286046997.2,N
1512108915.6,286046996.5,N
1512108935.4,286046999.6,N
1512108955.3,286046996.8,N
1512108975.1,286046996.7,N
1512108976.0,286046996.7,N
1512108995.8,286046998.3,N
1512109015.7,286046997.3,N
1512109035.5,286046999.6,N
1512109055.3,286046999.1,N
1512109075.2,286046998.3,N
1512109095.0,286046996.9,N
1512109095.9,286046996.9,N
1512109115.8,286046997.3,N
1512109135.6,286046995.7,Y
1512109155.4,286046999.1,P
1512109175.3,286046999.3,N
1512109195.1,286046998.4,N
1512109215.9,286047001.2,N
1512109235.7,286046998.6,N
1512109255.5,286047000.8,N
1512109275.4,286046999.1,N
1512109295.2,286046998.4,N
1512109315.0,286046999.6,N
1512109315.9,286046999.6,N
1512109335.8,286046999.2,N
1512109355.6,286046999.0,N
1512109375.5,286046999.3,N
1512109395.3,286046996.5,Y
1512109415.1,286046999.4,P
1512109435.9,286047000.9,P
1512109455.7,286046998.1,N
1512109475.5,286047002.6,N
1512109495.4,286047001.8,N
1512109515.2,286047001.7,N
1512109535.1,286047000.9,N
1512109536.0,286047000.9,N
1512109555.8,286047002.8,N
1512109575.6,286046999.9,N
1512109595.5,286047000.8,N
1512109615.3,286047000.3,N
1512109635.2,286046998.2,N
1512109655.9,286046998.3,N
1512109675.7,286047001.0,N
1512109695.6,286047000.9,N
1512109715.4,286047000.2,N
1512109735.2,286047001.2,N
1512109755.1,286047001.0,N
1512109756.0,286047001.0,N
1512109775.8,286047000.9,N
1512109795.7,286047000.0,N
1512109815.5,286047001.0,N
1512109835.3,286047000.3,N
1512109855.2,286047002.4,N
1512109875.0,286047000.3,N
1512109875.9,286047000.3,N
1512109895.7,286047000.9,N
1512109915.6,286047000.2,N
1512109935.4,286047002.1,N
1512109955.3,286046999.7,N
1512109975.1,286047002.5,N
1512109995.8,286047002.0,N
1512110015.7,286047000.0,N
1512110035.5,286047002.8,N
1512110055.4,286046999.9,N
1512110075.2,286047001.9,N
1512110095.0,286047001.8,N
1512110095.9,286047001.8,N
1512110115.8,286047003.6,Y
1512110135.6,286047001.8,P
1512110155.4,286047003.1,P
1512110175.3,286047003.7,P
1512110195.1,286047003.7,Y
1512110215.9,286047000.7,P
1512110235.7,286046999.1,N
1512110255.5,286046999.5,N
1512110275.4,286046999.4,N
1512110295.2,286046999.0,N
1512110315.1,286047002.6,N
1512110316.0,286047002.6,N
1512110335.8,286047002.8,N
1512110355.6,286047000.0,N
1512110375.5,286047000.5,N
1512110395.3,286046998.3,N
1512110415.1,286046998.7,N
1512110435.9,286047001.0,N
1512110455.7,286046999.9,N
1512110475.6,286047000.6,N
1512110495.4,286047000.1,N
1512110515.2,286047000.3,N
1512110535.1,286046999.9,N
1512110536.0,286046999.9,N
1512110555.8,286046999.8,N
1512110575.7,286047000.5,N
1512110595.5,286046998.7,N
1512110615.3,286046998.6,N
1512110635.2,286046998.6,N
1512110655.0,286046998.6,N
1512110655.9,286046998.6,N
1512110675.7,286047000.1,N
1512110695.6,286047000.5,N
1512110715.4,286047000.5,N
1512110735.3,286047000.6,N
1512110755.1,286046999.8,N
1512110775.8,286047002.4,N
1512110795.7,286047002.4,N
1512110815.5,286047000.4,N
1512110835.4,286047002.7,N
1512110855.2,286047002.3,N
1512110875.0,286047000.3,N
1512110875.9,286047000.3,N
1512110895.8,286046998.9,N
1512110915.6,286046997.9,N
1512110935.5,286046999.6,N
1512110955.3,286046997.5,N
1512110975.1,286046997.6,N
1512110995.9,286046997.5,N
1512111015.7,286046996.8,N
1512111035.5,286046997.2,N
1512111055.4,286046994.9,Y
1512111075.2,286046999.1,P
1512111095.1,286046998.6,P
1512111096.0,286046998.6,P
1512111115.8,286046998.5,Y
1512111135.6,286047000.9,P
1512111185.5,286047002.4,E
1512111195.4,286046999.8,N
1512111215.3,286046999.0,P
1512111235.1,286046999.1,N
1512111255.8,286046999.6,N
1512111275.7,286046998.5,Y
1512111295.5,286047002.8,P
1512111315.4,286047002.7,N
1512111335.2,286047001.1,N
1512111355.0,286046998.7,N
1512111355.9,286046998.7,N
1512111375.8,286046997.0,N
1512111395.6,286046999.6,N
1512111415.5,286046999.5,N
1512111435.3,286047000.9,N
1512111455.1,286047000.4,N
1512111475.9,286047001.7,N
1512111495.7,286047007.6,Y
1512111515.5,286047007.3,P
1512111535.4,286047006.6,N
1512111555.2,286047006.5,N
1512111575.1,286047008.6,N
1512111576.0,286047008.6,N
1512111595.8,286047009.1,Y
